Change the Weather History Date:

Thursday, November 24, 2011

  Actual Average Record
Temperature  
Mean Temperature 52 °F 35 °F  
Max Temperature 67 °F 43 °F 67 °F (2011)
Min Temperature 37 °F 26 °F 1 °F (1950)
Degree Days  
Heating Degree Days 13 30  
Month to date heating degree days 510 580  
Since 1 July heating degree days 922 1064  
Cooling Degree Days 0 0  
Month to date cooling degree days 0 0  
Year to date cooling degree days 1353 1066  
Growing Degree Days 2 (Base 50)    
Moisture  
Dew Point 39 °F    
Average Humidity 72    
Maximum Humidity 100    
Minimum Humidity 44    
Precipitation  
Precipitation 0.00 in 0.06 in 0.91 in (2009)
Month to date precipitation 2.68 1.81  
Year to date precipitation 34.56 34.22  
Snow  
Snow 0.00 in 0.20 in 2.50 in (1975)
Month to date snowfall 3.7 1.5  
Since 1 July snowfall 3.7 1.9  
Since 1 September snowfall 3.7 1.9  
Snow Depth 0.00 in    
Sea Level Pressure  
Sea Level Pressure 30.01 in    
Wind  
Wind Speed 14 mph (South)    
Max Wind Speed 23 mph    
Max Gust Speed 30 mph    
Visibility 7 miles    
Events      
T = Trace of Precipitation, MM = Missing Value Source: NWS Daily Summary

Daily Weather History Graph

Daily Weather History Graph

Search for Another Location

Airport or City:

Trip Planner

Search our weather history database for the weather conditions in past years. The results will help you decide how hot, cold, wet, or windy it might be!

Date:

Astronomy

Nov. 24, 2011 Rise Set
Actual Time 7:13 AM CST 4:48 PM CST
Civil Twilight 6:43 AM CST 5:18 PM CST
Nautical Twilight 6:09 AM CST 5:52 PM CST
Astronomical Twilight 5:36 AM CST 6:26 PM CST
Moon 6:32 AM CST (11/24) 4:19 PM CST (11/24)
Length of Visible Light 10h 35m
Length of Day
9h 34m
Waning Crescent, 0% of the Moon is Illuminated
Nov 24
Waning Crescent
Nov 25
New
Dec 2
First Quarter
Dec 10
Full
Dec 17
Last Quarter

Hourly Weather History & Observations

Time (CST) Temp. Windchill Dew Point Humidity Pressure Visibility Wind Dir Wind Speed Gust Speed Precip Events Conditions
12:39 AM 37.4 °F 30.8 °F 35.6 °F 93% 30.12 in 3.0 mi South 9.2 mph - N/A   Clear
12:54 AM 37.9 °F 31.5 °F 36.0 °F 93% 30.13 in 3.0 mi South 9.2 mph - N/A   Clear
1:54 AM 37.9 °F 30.9 °F 37.0 °F 97% 30.13 in 3.0 mi South 10.4 mph - N/A   Clear
2:54 AM 37.0 °F 31.0 °F 36.0 °F 96% 30.12 in 3.0 mi South 8.1 mph - N/A   Clear
3:54 AM 37.0 °F 29.8 °F 36.0 °F 96% 30.10 in 3.0 mi South 10.4 mph - N/A   Clear
4:54 AM 37.4 °F 29.3 °F 35.6 °F 93% 30.07 in 3.0 mi South 12.7 mph - N/A   Clear
5:54 AM 37.0 °F 30.4 °F 36.0 °F 96% 30.09 in 3.0 mi South 9.2 mph - N/A   Clear
6:32 AM 37.4 °F 30.8 °F 35.6 °F 93% 30.07 in 2.5 mi SSE 9.2 mph - N/A   Clear
6:39 AM 37.4 °F 30.3 °F 35.6 °F 93% 30.07 in 3.0 mi SSE 10.4 mph - N/A   Partly Cloudy
6:54 AM 37.0 °F 29.3 °F 35.1 °F 93% 30.09 in 3.0 mi SSE 11.5 mph - N/A   Partly Cloudy
7:54 AM 37.9 °F 30.9 °F 37.0 °F 97% 30.09 in 3.0 mi South 10.4 mph - N/A   Partly Cloudy
8:54 AM 42.1 °F 36.6 °F 39.9 °F 92% 30.08 in 3.0 mi South 9.2 mph - N/A   Partly Cloudy
9:54 AM 48.9 °F - 43.0 °F 80% 30.06 in 7.0 mi South 15.0 mph - N/A   Partly Cloudy
10:54 AM 54.0 °F - 43.0 °F 66% 30.05 in 10.0 mi South 12.7 mph - N/A   Scattered Clouds
11:54 AM 57.9 °F - 44.1 °F 60% 30.01 in 10.0 mi South 15.0 mph - N/A   Mostly Cloudy
12:54 PM 61.0 °F - 44.1 °F 54% 29.98 in 10.0 mi SSW 15.0 mph 23.0 mph N/A   Overcast
1:54 PM 66.2 °F - 44.6 °F 46% 29.94 in 10.0 mi SSW 20.7 mph 27.6 mph N/A   Overcast
2:54 PM 66.0 °F - 44.1 °F 45% 29.93 in 10.0 mi South 20.7 mph 25.3 mph N/A   Mostly Cloudy
3:54 PM 64.9 °F - 42.1 °F 43% 29.91 in 10.0 mi SSW 15.0 mph 26.5 mph N/A   Scattered Clouds
4:54 PM 61.0 °F - 42.1 °F 50% 29.92 in 10.0 mi South 13.8 mph - N/A   Partly Cloudy
5:54 PM 59.0 °F - 41.0 °F 51% 29.92 in 10.0 mi South 13.8 mph - N/A   Partly Cloudy
6:54 PM 57.0 °F - 39.9 °F 53% 29.91 in 10.0 mi South 12.7 mph - N/A   Scattered Clouds
7:54 PM 57.0 °F - 39.9 °F 53% 29.91 in 10.0 mi South 15.0 mph - N/A   Scattered Clouds
8:54 PM 55.9 °F - 39.0 °F 53% 29.90 in 10.0 mi SSW 17.3 mph - N/A   Partly Cloudy
9:54 PM 55.0 °F - 37.9 °F 53% 29.89 in 10.0 mi SSW 19.6 mph 26.5 mph N/A   Partly Cloudy
10:54 PM 53.6 °F - 39.2 °F 58% 29.88 in 10.0 mi SSW 17.3 mph 25.3 mph N/A   Partly Cloudy
11:54 PM 53.1 °F - 39.9 °F 61% 29.87 in 10.0 mi SSW 17.3 mph - N/A   Partly Cloudy